Weather in Kostiantynivka

Ukraine / Donetsk Region     48°30′50″N   37°41′13″E
temp.,
°C
wind,
m/s
gust,
m/s
humid.,
%
clouds,
%
prec.,
mm/h
press.,
hPa
HPBL,
m
7 may, fri
fri700:00+12ssw367560 0.0 1011103
03:00+9w3485100 0.0 101258
06:00+10nw3691100 0.0 1012254
09:00+13nw457019 0.0 1014850
12:00+17nnw454825 0.0 10151489
15:00+18nw343962 0.0 10162142
18:00+18sw023916 0.0 10151883
21:00+13ese225182 0.0 101612
8 may, sat
sat800:00+12se4957100 0.0 1015151
03:00+12sse41078100 0.0 1014266
06:00+12s51276100 0.0 1014405
09:00+15s71267100 0.0 1012701
12:00+20ssw81153100 0.0 10111457
15:00+20ssw8105393 0.0 10101637
18:00+14w4891100 1.0 1011586
21:00+11nw4892100 2.6 1012563
9 may, sun
sun900:00+8nw61090100 2.4 1014666
03:00+7nw6884100 6.1 1014794
06:00+6nnw61092100 0.9 1015705
09:00+8nnw81177100 1.3 10171119
12:00+11nnw81155100 0.1 10181699
15:00+13nnw9114297 0.1 10192400
18:00+11nnw81052100 0.1 10211234
21:00+7nnw496723 0.2 1023217
10 may, mon
mon1000:00+5nw4117735 0.0 1024275
03:00+5nnw51182100 0.0 1025333
06:00+5nnw61476100 0.0 1025569
09:00+10nnw91459100 0.0 10231419
12:00+12n111648100 0.0 10211970
15:00+8n91880100 2.4 10211316
18:00+8n91783100 3.3 1020793
21:00+8n102087100 4.5 1020700
11 may, tue
tue1100:00+9n91787100 0.0 1019583
03:00+9n71486100 0.1 1019518
06:00+8n71588100 0.0 1020500
09:00+13nne8127754 0.1 1019725
12:00+15ne81375100 0.1 10191287
15:00+12ene5118882 0.6 1020847
18:00+13ene79652 0.1 10211250
21:00+9e488115 0.1 1022289